TOURFACTS.DK  
Stats and Facts from Tour de France.

Tour de France 2018 starts in 203 days
  Riders   Stages   Teams   Summits   Yearly  


 
Search by year

 2017 - St. 21:  14824 starters.
  5132 different riders.
  635 teams.
  2232 stages.
  454 restdays.
  439589.60 km.
  5653 abandonnees.


Top 3
Christopher Froome86:20:55
Rigoberto Uran86:21:49
Romain Bardet86:23:15
Warren Barguil169 pt.
Primoz Roglic80 pt.
Thomas De Gendt64 pt.
Michael Matthews359 pt.
André Greipel234 pt.
Edvald Boasson Hagen220 pt.
Simon Yates86:27:09
Louis Meintjes86:29:15
Emanuel Buchmann86:54:16
Facts from Tour de France 2017
  |   Stages.  |   Stage winners.  |   Days in yellow  |   Average speed.  |   Route.  |   Teams.  |   All riders.  |   Rookies.  |   Withdrawls.  |  

  |   GC.  |   Polka  |   Green  |   White  |   Summits. (In tour)  |   Summits. (Points)  |   Miscellaneous.  |  

Stage 16 on 18 - 07 - 2017
         Owning:    Christopher Froome      Warren Barguil      Marcel Kittel      Simon Yates  

Pick a stage:  1 2 3 4 5 6 7 8 9 10 11 12 13 14 15 16 17 18 19 20 21
  Le Puy-en-VelayRomans-sur-Isère | Dist: 165.00 km.
Cat: 3Côte de BoussouletBELThomas De Gendt
2 points
 
Cat: 4Col du RouveyFRAWarren Barguil
1 point
 

Average speed for all riders in stage:  43,991 km./hr.
    Place:Name:Team:Time:Km/h:
AUSMichael MatthewsDEUTeam Sunweb03:38:15  +  00:00:00=45,361 
NOREdvald Boasson HagenZAFDimension Data03:38:15  +  00:00:00=45,361 
GERJohn DegenkolbUSATrek – Segafredo03:38:15  +  00:00:00=45,361 
4 BELGreg Van AvermaetUSABMC Racing Team03:38:15  +  00:00:00=45,361 
5 FRAChristophe LaporteFRACofidis – Solutions Crédits03:38:15  +  00:00:00=45,361 
6 BELJens KeukeleireAUSOrica - Scott03:38:15  +  00:00:00=45,361 
7 FRATony GallopinBELLotto Soudal03:38:15  +  00:00:00=45,361 
8 BELTiesj BenootBELLotto Soudal03:38:15  +  00:00:00=45,361 
9 POLMaciej BodnarDEUBora–Hansgrohe03:38:15  +  00:00:00=45,361 
10 FRARomain HardyFRAFortuneo - Vital Concept03:38:15  +  00:00:00=45,361 
11 RSAReinardt Janse Van RensburgZAFDimension Data03:38:15  +  00:00:00=45,361 
12 COLRigoberto UranUSACannondale-Drapac Pro Cycling ..03:38:15  +  00:00:00=45,361 
13 KENChristopher FroomeGBRSky Procycling03:38:15  +  00:00:00=45,361 
14 ENGSimon YatesAUSOrica - Scott03:38:15  +  00:00:00=45,361 
15 ESPMikel Landa MeanaGBRSky Procycling03:38:15  +  00:00:00=45,361 
16 FRARomain BardetFRAAg2r La Mondiale03:38:15  +  00:00:00=45,361 
17 ITADamiano CarusoUSABMC Racing Team03:38:15  +  00:00:00=45,361 
18 ITAFabio AruKAZAstana Pro Team03:38:15  +  00:00:00=45,361 
19 COLNairo QuintanaESPMovistar Team03:38:15  +  00:00:00=45,361 
20 ESPImanol ErvitiESPMovistar Team03:38:15  +  00:00:00=45,361 
21 FRAWarren BarguilDEUTeam Sunweb03:38:15  +  00:00:00=45,361 
22 SUIStefan KüngUSABMC Racing Team03:38:15  +  00:00:00=45,361 
23 BELOliver NaesenFRAAg2r La Mondiale03:38:15  +  00:00:00=45,361 
24 FRANicolas RocheUSABMC Racing Team03:38:32  +  00:00:17=45,302 
25 SUIMichael SchärUSABMC Racing Team03:38:32  +  00:00:17=45,302 
26 GERNikias ArndtDEUTeam Sunweb03:38:37  +  00:00:22=45,285 
27 ENGScott ThwaitesZAFDimension Data03:38:38  +  00:00:23=45,281 
28 ITADaniele BennatiESPMovistar Team03:38:43  +  00:00:28=45,264 
29 RSALouis MeintjesUAEUAE Team Emirates03:39:06  +  00:00:51=45,185 
30 FRAPierre-Roger LatourFRAAg2r La Mondiale03:39:06  +  00:00:51=45,185 
31 ENGDaniel MartinBELQuick-Step Floors03:39:06  +  00:00:51=45,185 
32 RSADaryl ImpeyAUSOrica - Scott03:39:06  +  00:00:51=45,185 
33 GEREmanuel BuchmannDEUBora–Hansgrohe03:39:06  +  00:00:51=45,185 
34 FRAAlexis VuillermozFRAAg2r La Mondiale03:39:06  +  00:00:51=45,185 
35 COLSergio Luis HenaoGBRSky Procycling03:39:06  +  00:00:51=45,185 
36 FRAGuillaume MartinBELWanty – Groupe Gobert03:39:06  +  00:00:51=45,185 
37 FRASylvain ChavanelFRADirect Energie03:39:06  +  00:00:51=45,185 
38 NEDDylan Van BaarleUSACannondale-Drapac Pro Cycling ..03:39:06  +  00:00:51=45,185 
39 AUSJay McCarthyDEUBora–Hansgrohe03:39:06  +  00:00:51=45,185 
40 FRAAmaël MoinardUSABMC Racing Team03:39:06  +  00:00:51=45,185 
41 FRAPierre-Luc PérichonFRAFortuneo - Vital Concept03:39:06  +  00:00:51=45,185 
42 NORAlexander KristoffCHETeam Katusha - Alpecin03:39:08  +  00:00:53=45,178 
43 GERAndré GreipelBELLotto Soudal03:39:40  +  00:01:25=45,068 
44 FRABrice FeilluFRAFortuneo - Vital Concept03:39:48  +  00:01:33=45,041 
45 JPNYukiya ArashiroBHRBahrain-Merida03:39:48  +  00:01:33=45,041 
46 ESPAlberto ContadorUSATrek – Segafredo03:39:48  +  00:01:33=45,041 
47 GERJasha SütterlinESPMovistar Team03:39:48  +  00:01:33=45,041 
48 BELSerge PauwelsZAFDimension Data03:39:48  +  00:01:33=45,041 
49 FRAAdrien PetitFRADirect Energie03:39:48  +  00:01:33=45,041 
50 ITADiego UlissiUAEUAE Team Emirates03:39:48  +  00:01:33=45,041 
51 GERGianluca BrambillaBELQuick-Step Floors03:39:48  +  00:01:33=45,041 
52 HRVRobert KiserlovskiCHETeam Katusha - Alpecin03:39:48  +  00:01:33=45,041 
53 ESPMikel NieveGBRSky Procycling03:39:48  +  00:01:33=45,041 
54 COLCarlos Alberto BetancurESPMovistar Team03:39:48  +  00:01:33=45,041 
55 CRCAndrey AmadorESPMovistar Team03:39:48  +  00:01:33=45,041 
56 ENGBen SwiftUAEUAE Team Emirates03:39:48  +  00:01:33=45,041 
57 HRVKristijan DurasekUAEUAE Team Emirates03:39:48  +  00:01:33=45,041 
58 CZERoman KreuzigerAUSOrica - Scott03:39:48  +  00:01:33=45,041 
59 ITAMatteo BonoUAEUAE Team Emirates03:39:48  +  00:01:33=45,041 
60 FRARudy MolardFRAFDJ03:39:48  +  00:01:33=45,041 
61 COLJohan Esteban ChavesAUSOrica - Scott03:39:48  +  00:01:33=45,041 
62 AUTBernhard EiselZAFDimension Data03:39:48  +  00:01:33=45,041 
63 FRAElie GesbertFRAFortuneo - Vital Concept03:39:48  +  00:01:33=45,041 
64 BELJan BakelantsFRAAg2r La Mondiale03:39:48  +  00:01:33=45,041 
65 SUIMathias FrankFRAAg2r La Mondiale03:39:55  +  00:01:40=45,017 
66 POLPawel PoljanskiDEUBora–Hansgrohe03:39:58  +  00:01:43=45,007 
67 FRANacer BouhanniFRACofidis – Solutions Crédits03:39:58  +  00:01:43=45,007 
68 NEDBauke MollemaUSATrek – Segafredo03:39:58  +  00:01:43=45,007 
69 UKRAndriy GrivkoKAZAstana Pro Team03:40:13  +  00:01:58=44,956 
70 ITAMarco MarcatoUAEUAE Team Emirates03:40:21  +  00:02:06=44,929 
71 FRALilian CalmejaneFRADirect Energie03:40:24  +  00:02:09=44,918 
72 GERChristian KneesGBRSky Procycling03:40:29  +  00:02:14=44,901 
73 ITASonny ColbrelliBHRBahrain-Merida03:40:47  +  00:02:32=44,840 
74 BLRVasil KiryienkaGBRSky Procycling03:40:54  +  00:02:39=44,817 
75 NZLJack BauerBELQuick-Step Floors03:40:59  +  00:02:44=44,800 
76 NEDKoen De KortUSATrek – Segafredo03:41:06  +  00:02:51=44,776 
77 NEDRamon SinkeldamDEUTeam Sunweb03:41:06  +  00:02:51=44,776 
78 USANathan BrownUSACannondale-Drapac Pro Cycling ..03:41:06  +  00:02:51=44,776 
79 FRAMaxime BouetFRAFortuneo - Vital Concept03:41:06  +  00:02:51=44,776 
80 GERPaul MartensNLDTeam Lotto NL - Jumbo03:41:06  +  00:02:51=44,776 
81 SLOJanez BrajkovicBHRBahrain-Merida03:41:06  +  00:02:51=44,776 
82 ESPHaimar ZubeldiaUSATrek – Segafredo03:41:06  +  00:02:51=44,776 
83 LUXBen GastauerFRAAg2r La Mondiale03:41:06  +  00:02:51=44,776 
84 NEDMarco MinnaardBELWanty – Groupe Gobert03:41:06  +  00:02:51=44,776 
85 COLDarwin AtapumaUAEUAE Team Emirates03:41:06  +  00:02:51=44,776 
86 FRAPierre RollandUSACannondale-Drapac Pro Cycling ..03:41:06  +  00:02:51=44,776 
87 ETHTsgabu Gebremaryan GrmayBHRBahrain-Merida03:41:06  +  00:02:51=44,776 
88 KAZDmitriy GruzdevKAZAstana Pro Team03:41:50  +  00:03:35=44,628 
89 FRAYohann GèneFRADirect Energie03:42:39  +  00:04:24=44,464 
90 PORTiago PintoCHETeam Katusha - Alpecin03:43:09  +  00:04:54=44,365 
91 DENMichael ValgrenKAZAstana Pro Team03:43:09  +  00:04:54=44,365 
92 BELThomas De GendtBELLotto Soudal03:43:09  +  00:04:54=44,365 
93 FRAPerrig QuemeneurFRADirect Energie03:43:09  +  00:04:54=44,365 
94 BELThomas DegandBELWanty – Groupe Gobert03:43:09  +  00:04:54=44,365 
95 FRAThomas VoecklerFRADirect Energie03:43:09  +  00:04:54=44,365 
96 GERSimon GeschkeDEUTeam Sunweb03:43:09  +  00:04:54=44,365 
97 FRAThomas BoudatFRADirect Energie03:43:09  +  00:04:54=44,365 
98 FRARomain SicardFRADirect Energie03:43:20  +  00:05:05=44,328 
99 ESPJonathan CastroviejoESPMovistar Team03:43:20  +  00:05:05=44,328 
100 ITADavide CimolaiFRAFDJ03:43:20  +  00:05:05=44,328 
101 GERNils PolittCHETeam Katusha - Alpecin03:43:20  +  00:05:05=44,328 
102 ESPJesus HerradaESPMovistar Team03:43:20  +  00:05:05=44,328 
103 POLMichal KwiatkowskiGBRSky Procycling03:43:20  +  00:05:05=44,328 
104 FRACyril LemoineFRACofidis – Solutions Crédits03:43:34  +  00:05:19=44,282 
105 ITAAlessandro De MarchiUSABMC Racing Team03:44:00  +  00:05:45=44,196 
106 NEDMike TeunissenDEUTeam Sunweb03:44:34  +  00:06:19=44,085 
107 NEDRoy CurversDEUTeam Sunweb03:44:34  +  00:06:19=44,085 
108 KAZAndrey ZeitsKAZAstana Pro Team03:44:34  +  00:06:19=44,085 
109 SUIMichael AlbasiniAUSOrica - Scott03:44:34  +  00:06:19=44,085 
110 FRAThibaut PinotFRAFDJ03:44:34  +  00:06:19=44,085 
111 FRAAxel DomontFRAAg2r La Mondiale03:44:34  +  00:06:19=44,085 
112 NZLPaddy BevinUSACannondale-Drapac Pro Cycling ..03:44:34  +  00:06:19=44,085 
113 ARGEduardo SepulvedaFRAFortuneo - Vital Concept03:44:34  +  00:06:19=44,085 
114 ESPDaniel NavarroFRACofidis – Solutions Crédits03:44:34  +  00:06:19=44,085 
115 KAZAlexey LutsenkoKAZAstana Pro Team03:45:00  +  00:06:45=44,000 
116 USAAndrew TalanskyUSACannondale-Drapac Pro Cycling ..03:45:17  +  00:07:02=43,945 
117 KAZBakhtiyar KozhatayevKAZAstana Pro Team03:45:53  +  00:07:38=43,828 
118 ESPJavier Moreno BazánBHRBahrain-Merida03:47:24  +  00:09:09=43,536 
119 AUSDamien HowsonAUSOrica - Scott03:47:24  +  00:09:09=43,536 
120 NEDAlbert TimmerDEUTeam Sunweb03:48:14  +  00:09:59=43,377 
121 NEDLaurens ten DamDEUTeam Sunweb03:48:14  +  00:09:59=43,377 
122 COLJarlinson Pantano GomezUSATrek – Segafredo03:48:14  +  00:09:59=43,377 
123 ENGStephen CummingsZAFDimension Data03:48:14  +  00:09:59=43,377 
124 DENLars BakBELLotto Soudal03:54:34  +  00:16:19=42,205 
125 ITAFabio SabatiniBELQuick-Step Floors03:54:34  +  00:16:19=42,205 
126 BELGuillaume Van KeirsbulckBELWanty – Groupe Gobert03:54:34  +  00:16:19=42,205 
127 GERMarcel SiebergBELLotto Soudal03:54:34  +  00:16:19=42,205 
128 AUSAdam HansenBELLotto Soudal03:54:34  +  00:16:19=42,205 
129 WALLuke RoweGBRSky Procycling03:54:34  +  00:16:19=42,205 
130 GERMarcus BurghardtDEUBora–Hansgrohe03:54:34  +  00:16:19=42,205 
131 NEDMaurits LammertinkCHETeam Katusha - Alpecin03:54:34  +  00:16:19=42,205 
132 ESPMarkel IrizarUSATrek – Segafredo03:54:34  +  00:16:19=42,205 
133 AUSMathew HaymanAUSOrica - Scott03:54:34  +  00:16:19=42,205 
134 BELJulien VermoteBELQuick-Step Floors03:54:34  +  00:16:19=42,205 
135 AUTMarco HallerCHETeam Katusha - Alpecin03:54:34  +  00:16:19=42,205 
136 GERMarcel KittelBELQuick-Step Floors03:54:34  +  00:16:19=42,205 
137 FRAFlorian VachonFRAFortuneo - Vital Concept03:54:34  +  00:16:19=42,205 
138 AUSSimon ClarkeUSACannondale-Drapac Pro Cycling ..03:54:34  +  00:16:19=42,205 
139 SUIDanilo WyssUSABMC Racing Team03:54:34  +  00:16:19=42,205 
140 SUIReto HollensteinCHETeam Katusha - Alpecin03:54:34  +  00:16:19=42,205 
141 SLOBorut BozicBHRBahrain-Merida03:54:34  +  00:16:19=42,205 
142 FRACyril GautierFRAAg2r La Mondiale03:54:34  +  00:16:19=42,205 
143 DDRRüdiger SeligDEUBora–Hansgrohe03:54:34  +  00:16:19=42,205 
144 NEDTimo RoosenNLDTeam Lotto NL - Jumbo03:54:34  +  00:16:19=42,205 
145 ITAAndrea PasqualonBELWanty – Groupe Gobert03:54:34  +  00:16:19=42,205 
146 AUTMichael GoglUSATrek – Segafredo03:54:34  +  00:16:19=42,205 
147 NORVegard Stake LaengenUAEUAE Team Emirates03:54:34  +  00:16:19=42,205 
148 BELPieter VanspeybrouckBELWanty – Groupe Gobert03:54:34  +  00:16:19=42,205 
149 BELFrederik BackaertBELWanty – Groupe Gobert03:54:34  +  00:16:19=42,205 
150 FRAJulien SimonFRACofidis – Solutions Crédits03:54:34  +  00:16:19=42,205 
151 FRANicolas EdetFRACofidis – Solutions Crédits03:54:34  +  00:16:19=42,205 
152 FRAOlivier Le GacFRAFDJ03:54:34  +  00:16:19=42,205 
153 GERTony MartinCHETeam Katusha - Alpecin03:54:34  +  00:16:19=42,205 
154 BELDimitri ClaeysFRACofidis – Solutions Crédits03:54:34  +  00:16:19=42,205 
155 FRAAngelo TulikFRADirect Energie03:54:34  +  00:16:19=42,205 
156 BELJürgen RoelandtsBELLotto Soudal03:54:34  +  00:16:19=42,205 
157 FRAFlorian SénéchalFRACofidis – Solutions Crédits03:54:34  +  00:16:19=42,205 
158 SLOGrega BoleBHRBahrain-Merida03:54:34  +  00:16:19=42,205 
159 NZLDion SmithBELWanty – Groupe Gobert03:54:34  +  00:16:19=42,205 
160 CZEZdenek StybarBELQuick-Step Floors03:54:34  +  00:16:19=42,205 
161 CZEOndrej CinkBHRBahrain-Merida03:54:34  +  00:16:19=42,205 
162 GERRick ZabelCHETeam Katusha - Alpecin03:54:34  +  00:16:19=42,205 
163 ITAAlberto BettiolUSACannondale-Drapac Pro Cycling ..03:54:34  +  00:16:19=42,205 
164 NEDDylan GroenewegenNLDTeam Lotto NL - Jumbo03:54:34  +  00:16:19=42,205 
165 SLOPrimoz RoglicNLDTeam Lotto NL - Jumbo03:54:34  +  00:16:19=42,205 
166 NEDTom LeezerNLDTeam Lotto NL - Jumbo03:54:34  +  00:16:19=42,205 
167 RSAJaco VenterZAFDimension Data03:54:34  +  00:16:19=42,205 
168 GERRobert WagnerNLDTeam Lotto NL - Jumbo03:54:34  +  00:16:19=42,205 
169 USATaylor PhinneyUSACannondale-Drapac Pro Cycling ..03:54:34  +  00:16:19=42,205 
170 FRAYoann OffredoBELWanty – Groupe Gobert03:54:34  +  00:16:19=42,205 
171 ESPLuis Angel MateFRACofidis – Solutions Crédits04:04:32  +  00:26:17=40,485 
172 FRALaurent PichonFRAFortuneo - Vital Concept04:04:32  +  00:26:17=40,485 
173 ENGDaniel McLayFRAFortuneo - Vital Concept04:04:32  +  00:26:17=40,485 

Withdrawls: 2
 
Rider
Team
Reason
104  BELPhilippe GilbertBELQuick-Step FloorsDid not start
162  NZLGeorge BennettNLDTeam Lotto NL - JumboDid not finish

Todays birthdays.

1874  Henri Timmermann
1877  Gustave Guillarme
1886  Guillaume Nyssen
1892  Albert Cartigny
1913  Arsène Mersch
1919  Jean Breuer
1927  Alfred Kain
1930  Edgard Sorgeloos
1937  Frans De Mulder
1960  Jacques Hanegraaf
1986  Andrey Zeits